Location: Franzen
(48.6167°N, 15.3833°E)
Time: 11:00:06
(UTC+00:00)

COBE Rocket - Pass Details

Date: 22 April 2021
Orbit: 681 x 781 km, 97.1° (Epoch: 16 May)

Event Time Altitude Azimuth Distance (km) Brightness Sun altitude
Exits shadow 22:29:10 58° 32° (NNE) 840 4.3 -28.6°
Drops below altitude 10° 22:33:23 10° 353° (N) 2,242 7.4 -28.6°
Sets 22:35:43 0° 351° (N) 3,185 8.4 -28.7°
